Regional Weather Roundup
Issued by NWS

Home | Current Version | Previous Version | Graphics & Text | Print | Product List | Glossary On
Versions: 1 2 3 4 5 6 7 8 9 10 11 12 13 14 15 16 17 18 19 20 21 22 23 24 25 26 27 28 29 30 31 32 33 34 35 36 37 38 39 40 41 42 43 44 45 46 47 48 49 50
000
ASUS43 KMKX 111200
RWRWI

WISCONSIN REGIONAL WEATHER ROUNDUP
NATIONAL WEATHER SERVICE MILWAUKEE/SULLIVAN WI
600 AM CST THU FEB 11 2016

NOTE: "FAIR" INDICATES FEW OR NO CLOUDS BELOW 12,000 FEET WITH NO
SIGNIFICANT WEATHER AND/OR OBSTRUCTIONS TO VISIBILITY.

WIZ001-002-006>008-014>016-023>028-111300-
NORTHWEST WISCONSIN

CITY           SKY/WX    TMP DP  RH WIND       PRES   REMARKS
SUPERIOR ARPT  CLOUDY    -9 -14  78 W7        30.32R WCI -23
ASHLAND        CLOUDY    -3  -6  87 SW7       30.27S WCI -16
6HR MIN TEMP:  -7; 6HR MAX TEMP:   1;

HAYWARD        CLOUDY   -19 -25  73 CALM      30.26R
6HR MIN TEMP: -20; 6HR MAX TEMP: -11;

SIREN          CLOUDY   -16 -22  73 CALM      30.30S
CUMBERLAND     CLOUDY   -13 -17  84 CALM      30.25S
RICE LAKE      CLOUDY   -12 -17  78 CALM      30.30R
CHETEK         CLOUDY   -13 -18  80 CALM      30.29R
LADYSMITH      CLOUDY   -13 -19  77 CALM      30.26S
EAU CLAIRE     PTCLDY    -7 -12  79 CALM      30.29R
6HR MIN TEMP:  -9; 6HR MAX TEMP:   4;

MENOMONIE      PTCLDY    -5 -11  73 CALM      30.30R
NEW RICHMOND   PTCLDY    -8 -13  81 CALM      30.30R
OSCEOLA        PTCLDY    -5  -9  84 CALM      30.33S
$$

WIZ003>005-009-010-017-018-111300-
NORTH CENTRAL WISCONSIN

CITY           SKY/WX    TMP DP  RH WIND       PRES   REMARKS
MANITOWISH WTR FLURRIES  -3  -6  88 CALM      30.16R
ARBOR VITAE    MOCLDY     3  -1  83 NW3       30.15R
WOODRUFF       MOCLDY     3  -1  83 NW3       30.15R
RHINELANDER    CLOUDY    -2  -6  83 W6        30.15R WCI -14
6HR MIN TEMP:  -3; 6HR MAX TEMP:   2;

EAGLE RIVER    FLURRIES   1  -3  80 W3        30.13S
LAND O LAKES   CLOUDY     6   1  76 NW3       30.13S
PHILLIPS       MOCLDY   -13 -17  82 CALM      30.20S
TOMAHAWK       MOCLDY    -4  -8  84 W3        30.18S
MEDFORD        CLOUDY   -13 -17  82 W3        30.20R
MERRILL        CLEAR     -5  -9  84 CALM      30.21S
$$

WIZ029-030-035-036-043>047-111300-
CENTRAL WISCONSIN

CITY           SKY/WX    TMP DP  RH WIND       PRES   REMARKS
WAUSAU         CLEAR     -1  -6  79 NW8       30.21R WCI -15
6HR MIN TEMP:  -2; 6HR MAX TEMP:   3;

MOSINEE        CLEAR     -4  -8  84 CALM      30.22R
MARSHFIELD     CLOUDY    -6 -12  75 W5        30.22R WCI -17
6HR MIN TEMP:  -7; 6HR MAX TEMP:   0;

STEVENS POINT  CLOUDY    -4  -8  82 CALM      30.24R
WAUPACA        CLEAR      1  -5  74 W5        30.25R WCI  -8
WAUTOMA        NOT AVBL
WISC RAPIDS    CLOUDY    -7 -13  75 CALM      30.27R
6HR MIN TEMP:  -8; 6HR MAX TEMP:  -1;

CAMP DOUGLAS   NOT AVBL
$$

WIZ011>013-019>022-031-037>040-048>050-111300-
NORTHEAST WISCONSIN

CITY           SKY/WX    TMP DP  RH WIND       PRES   REMARKS
ANTIGO         PTCLDY    -3  -7  86 NW10      30.16R WCI -21
SHAWANO        CLEAR      2  -4  75 W7        30.23R WCI -11
OCONTO         CLEAR      1  -4  80 NW3       30.22S
STURGEON BAY   CLEAR      3  -6  66 NW8       30.22R WCI -10
6HR MIN TEMP:   1; 6HR MAX TEMP:   5;

GREEN BAY      CLEAR     -4  -8  83 W9        30.24R WCI -20
6HR MIN TEMP:  -4; 6HR MAX TEMP:   1;

MANITOWOC      NOT AVBL
APPLETON       CLEAR     -2  -9  71 W12       30.21R WCI -20
CLINTONVILLE   CLEAR      0  -6  78 W6        30.24R WCI -12
OSHKOSH        CLEAR     -1  -8  72 W8        30.24R WCI -15
6HR MIN TEMP:  -1; 6HR MAX TEMP:   3;

$$

WIZ032>034-041-042-053>061-111300-
SOUTHWEST WISCONSIN

CITY           SKY/WX    TMP DP  RH WIND       PRES   REMARKS
LA CROSSE      PTCLDY    -2  -7  79 CALM      30.32R
6HR MIN TEMP:  -5; 6HR MAX TEMP:   7;

SPARTA         PTCLDY   -15 -20  81 CALM      30.30R
VIROQUA        PTCLDY    -1  -5  84 CALM      30.24R
BOSCOBEL       PTCLDY    -4  -8  83 CALM      30.33R
6HR MIN TEMP:  -4; 6HR MAX TEMP:   9;

PRAIRIE DU CHI PTCLDY     0  -6  74 CALM      30.33R
PLATTEVILLE    CLEAR      2  -4  76 W5        30.28R WCI  -8
$$

WIZ056-057-062-063-064-067-068-111300-
SOUTH CENTRAL WISCONSIN

CITY           SKY/WX    TMP DP  RH WIND       PRES   REMARKS
REEDSBURG      PTCLDY    -4  -7  84 CALM      30.27R
BARABOO/DELLS  PTCLDY    -6 -12  76 CALM      30.26R
LONE ROCK      NOT AVBL
MINERAL POINT  CLOUDY     3  -4  72 NW3       30.25R
MADISON        CLEAR      1  -5  75 NW3       30.26R
6HR MIN TEMP:   1; 6HR MAX TEMP:   7;

MIDDLETON      CLEAR      2  -4  75 CALM      30.26R
WATERTOWN      PTCLDY     2  -4  77 NW6       30.24R WCI  -9
MONROE         CLEAR      5   0  78 N6        30.24R WCI  -6
JANESVILLE     CLEAR      7  -2  66 N7        30.26R WCI  -5
$$

WIZ051-052-058>065-066-070>072-111300-
SOUTHEAST WISCONSIN

CITY           SKY/WX    TMP DP  RH WIND       PRES   REMARKS
MILWAUKEE      CLEAR      5  -5  63 NW9       30.25R WCI  -9
6HR MIN TEMP:   5; 6HR MAX TEMP:   9;

WAUKESHA       CLEAR      0  -6  78 CALM      30.24R
MILWAUKEE/TIMM CLEAR      3  -6  66 NW7       30.25R WCI  -9
RACINE         CLEAR      4  -5  66 NW9       30.26R WCI -10
6HR MIN TEMP:   4; 6HR MAX TEMP:   9;

BURLINGTON     CLEAR      1  -5  73 NW6       30.24R WCI -10
KENOSHA        CLEAR      5  -4  66 NW6       30.24R WCI  -6
6HR MIN TEMP:   5; 6HR MAX TEMP:   8;

FOND DU LAC    CLEAR      2  -6  69 W10       30.24R WCI -14
6HR MIN TEMP:   1; 6HR MAX TEMP:   4;

SHEBOYGAN      CLEAR      2  -6  69 W10       30.23R WCI -14
6HR MIN TEMP:   2; 6HR MAX TEMP:   5;

WEST BEND      CLEAR      3  -6  66 CALM      30.23R
JUNEAU         PTCLDY     0  -5  76 NW7       30.25R WCI -13
$$

LSZ147-162-111300-
LAKE SUPERIOR

STATION/POSITION TIME  TEMP    WIND        PRES    WAVE
                       AIR SEA DIR/SP/G            HT/PER
                 (UTC) (F)     (DEG/KT/KT) (MB)    (FT/S)
DEVILS ISLAND    1100    8     300/  8/ 15 1026.5R
PORT WING        1140    0     190/  6/  8 1025.4S
SAXON HARBOR     1100    6                 1024.4
$$

LMZ867-665-643>646-111300-
LAKE MICHIGAN

STATION/POSITION TIME  TEMP    WIND        PRES    WAVE
                       AIR SEA DIR/SP/G            HT/PER
                 (UTC) (F)     (DEG/KT/KT) (MB)    (FT/S)
CHAMBERS ISLAND  1100    8     300/  7/ 14 1022.4R
ALGOMA LAKESHORE 0941          300/  5/  9   N/A
KEWAUNEE LAKESHO 1100    3     300/  6/ 10 1022.1
SHEBOYGAN LAKESH 1100    5     290/ 13/ 16 1025.2R
PORT WASHINGTON  1100    5     300/  8/ 11 1024.7R
MILWAUKEE LAKESH 1110    7     310/  9/ 11   N/A
KENOSHA   LAKESH 1100    7     300/  7/ 10 1023.7R
$$

TC  - TEMPERATURE IN CELSIUS
VSB - VISIBILITY IN STATUTE MILES
WCI - WIND CHILL INDEX
HX  - HEAT INDEX




USA.gov is the U.S. government's official web portal to all federal, state and local government web resources and services.